Tracking 22438 objects as of 24-Feb-2021
HD Live streaming from Space Station
objects crossing your sky now

COSMOS 1375 DEB

Track COSMOS 1375 DEB now!
10-day predictions


NORAD ID: 19453
Int'l Code: 1982-055BL
Perigee: 765.2 km
Apogee: 841.0 km
Inclination: 65.8 °
Period: 100.8 minutes
Semi major axis: 7174 km
RCS: 0.0034 m2 (small)
Launch date: June 6, 1982
Source: Commonwealth of Independent States (former USSR) (CIS)
Launch site: PLESETSK MISSILE AND SPACE COMPLEX (PKMTR)

Note: This is SATELLITE DEBRIS
aabbcc
Your satellite tracking list
Your tracking list is empty




NASA's NSSDC Master Catalog

Two Line Element Set (TLE):
1 19453U 82055BL  21054.83811637  .00000520  00000-0  23927-3 0  9994
2 19453  65.8068 210.8344 0052854  36.6773  34.7751 14.28740763694092
Source of the keplerian elements: AFSPC